Flag for Germany Weather past 2 weeks in Konstanz, Baden-Württemberg, Germany

Now
61 °F

Passing clouds.


Feels Like: 61 °F
Forecast: 47 / 72 °F
Wind: 2 mph from West

Location: Konstanz

Current Time: May 29, 2015 at 12:22:04 AM

Latest Report: May 28, 2015 at 11:00 PM


Visibility: 25 mi

Pressure: 30.00 "Hg

Humidity: 56%

Dew point: 45 °F

Location of KonstanzLocation

Historic Weather in Konstanz — Graph

°F

Konstanz temperature yesterday

Maximum temperature yesterday: 72 °F (at 6:00 PM)
Minimum temperature yesterday: 44 °F (at 5:00 AM)
Average temperature yesterday: 58 °F

Past Weeks' High & Low Weather Summary

 TemperatureHumidityPressure
High75 °F (May 18, 5:00 PM)97% (May 15, 2:00 PM)30.33 "Hg (May 15, 2:00 PM)
Low44 °F (May 28, 5:00 AM)26% (May 28, 5:00 PM)29.70 "Hg (May 18, 7:00 PM)
Average56 °F75%30.06 "Hg
* Reported May 13 11:00 PM — May 28 11:00 PM, Konstanz, Weather by CustomWeather, © 2015

Note: Actual official high and low records may vary slightly from our data, if they occured in-between our weather recording intervals... More about our weather records

Advertising

Konstanz weather history for previous 24 hours

 ConditionsComfort  
Time TempWeatherWind HumidityBarometerVisibility
11:00 PM
Thu, May 28
61 °FPassing clouds.2 mph56%30.00 "Hg25 mi
10:00 PM62 °FClear.2 mph54%29.99 "Hg25 mi
9:00 PM65 °FSunny.3 mph50%29.97 "Hg28 mi
8:00 PM67 °FSunny.3 mph42%29.95 "Hg28 mi
7:00 PM70 °FSunny.5 mph32%29.95 "Hg22 mi
6:00 PM72 °FSunny.6 mph28%29.95 "Hg14 mi
5:00 PM71 °FScattered clouds.5 mph26%29.97 "Hg31 mi
4:00 PM71 °FScattered clouds.3 mph30%29.98 "Hg28 mi
3:00 PM69 °FPartly sunny.5 mph33%30.00 "Hg25 mi
2:00 PM66 °FPartly sunny.3 mph39%30.03 "Hg25 mi
1:00 PM64 °FOvercast.2 mph47%30.05 "Hg22 mi
12:00 PM62 °FOvercast.3 mph49%30.08 "Hg19 mi
11:00 AM59 °FScattered clouds.1 mph64%30.10 "Hg19 mi
10:00 AM56 °FScattered clouds.1 mph63%30.12 "Hg17 mi
9:00 AM52 °FPartly sunny.1 mph72%30.14 "Hg16 mi
8:00 AM48 °FPartly sunny.1 mph84%30.14 "Hg12 mi
7:00 AM45 °FPartly sunny.1 mph95%30.16 "Hg11 mi
6:00 AM44 °FOvercast.2 mph96%30.15 "Hg11 mi
5:00 AM44 °FClear.1 mph95%30.15 "Hg8 mi
4:00 AM44 °FClear.1 mph93%30.16 "Hg11 mi
3:00 AM45 °FClear.1 mph92%30.16 "Hg14 mi
2:00 AM48 °FPassing clouds.2 mph85%30.16 "Hg16 mi
1:00 AM48 °FClear.2 mph83%30.17 "Hg18 mi
12:00 AM50 °FClear.2 mph68%30.18 "Hg19 mi
Weather by CustomWeather, © 2015

See weather overviewHow to use our weather pages